THY861 LOWW-LTFJ

Flight info

Callsign THY861
Flight time 2h 5m
Altitude 33000
Route ADAMA2C/29 LOWW/29 ADAMA Z648 VEDER DCT ALAMU DCT EPARI DCT TEGRI DCT TIMUR L606 ADORU UM19 IBODU IBOD2G LTFJ/06R
Aircraft B777/H-V/N

Departure

Time 2026-04-21 19:27
Airport Vienna International Airport (LOWW)

Arrival

Time 2026-04-21 21:33
Airport Istanbul Sabiha Gökçen International Airport (LTFJ)
Time Latitude Longitude Altitude Speed Heading
2026-04-21 18:44 48.11557 16.56805 620 ft 0 kts 205°
2026-04-21 19:20 48.11556 16.56804 607 ft 1 kts 205°
2026-04-21 19:20 48.11546 16.56797 607 ft 2 kts 205°
2026-04-21 19:20 48.11529 16.56785 623 ft 3 kts 205°
2026-04-21 19:20 48.11504 16.56772 615 ft 5 kts 195°
2026-04-21 19:21 48.11472 16.56785 622 ft 6 kts 154°
2026-04-21 19:21 48.11427 16.56813 621 ft 8 kts 166°
2026-04-21 19:21 48.11367 16.56837 621 ft 9 kts 151°
2026-04-21 19:21 48.11329 16.56915 623 ft 9 kts 118°
2026-04-21 19:22 48.11298 16.57005 624 ft 11 kts 116°
2026-04-21 19:22 48.11262 16.57115 624 ft 13 kts 115°
2026-04-21 19:22 48.11221 16.57240 619 ft 14 kts 116°
2026-04-21 19:22 48.11174 16.57384 625 ft 17 kts 115°
2026-04-21 19:23 48.11120 16.57555 620 ft 18 kts 115°
2026-04-21 19:23 48.11043 16.57637 608 ft 13 kts 194°
2026-04-21 19:23 48.11038 16.57634 610 ft 0 kts 200°
2026-04-21 19:24 48.11037 16.57634 610 ft 0 kts 200°
2026-04-21 19:25 48.11035 16.57632 611 ft 2 kts 200°
2026-04-21 19:25 48.11011 16.57618 618 ft 6 kts 202°
2026-04-21 19:25 48.10957 16.57579 619 ft 10 kts 210°
2026-04-21 19:26 48.10935 16.57485 612 ft 10 kts 284°
2026-04-21 19:26 48.10941 16.57461 622 ft 4 kts 291°
2026-04-21 19:26 48.10998 16.57278 625 ft 45 kts 296°
2026-04-21 19:26 48.11246 16.56517 620 ft 115 kts 296°
2026-04-21 19:27 48.11684 16.55171 595 ft 169 kts 296°
2026-04-21 19:27 48.12232 16.53497 955 ft 180 kts 297°
2026-04-21 19:27 48.12747 16.51768 1669 ft 183 kts 296°
2026-04-21 19:27 48.12976 16.49854 2164 ft 200 kts 261°
2026-04-21 19:28 48.12214 16.48027 2409 ft 224 kts 215°
2026-04-21 19:28 48.10711 16.47352 2624 ft 242 kts 173°
2026-04-21 19:28 48.09050 16.48041 2901 ft 257 kts 162°
2026-04-21 19:28 48.07220 16.48428 3404 ft 270 kts 175°
2026-04-21 19:29 48.05367 16.48869 4055 ft 271 kts 154°
2026-04-21 19:29 48.03750 16.50273 4778 ft 270 kts 144°
2026-04-21 19:29 48.02144 16.51776 5567 ft 273 kts 146°
2026-04-21 19:29 48.00522 16.53268 6391 ft 275 kts 146°
2026-04-21 19:30 47.98877 16.54780 7156 ft 278 kts 146°
2026-04-21 19:30 47.97269 16.56387 7813 ft 279 kts 134°
2026-04-21 19:30 47.96214 16.58783 8391 ft 278 kts 104°
2026-04-21 19:30 47.96059 16.61619 9126 ft 275 kts 79°
2026-04-21 19:31 47.96570 16.64355 9831 ft 275 kts 68°
2026-04-21 19:31 47.97209 16.67047 10390 ft 284 kts 68°
2026-04-21 19:31 47.97896 16.69938 10604 ft 308 kts 69°
2026-04-21 19:31 47.98629 16.73076 10808 ft 331 kts 69°
2026-04-21 19:32 47.99408 16.76448 11024 ft 354 kts 70°
2026-04-21 19:32 47.99975 16.80084 11493 ft 367 kts 81°
2026-04-21 19:32 48.00196 16.83918 12239 ft 375 kts 85°
2026-04-21 19:32 48.00331 16.87841 13161 ft 380 kts 85°
2026-04-21 19:33 48.00428 16.90464 13764 ft 384 kts 85°
2026-04-21 19:33 48.00683 16.95844 14832 ft 392 kts 84°
2026-04-21 19:33 48.00909 16.99927 15655 ft 397 kts 84°
2026-04-21 19:33 48.01122 17.04056 16476 ft 400 kts 87°
2026-04-21 19:34 48.01011 17.08252 17208 ft 409 kts 95°
2026-04-21 19:34 48.00644 17.12496 17985 ft 415 kts 97°
2026-04-21 19:34 48.00220 17.16780 18740 ft 420 kts 97°
2026-04-21 19:34 47.99817 17.21123 19440 ft 424 kts 96°
2026-04-21 19:35 47.99455 17.25513 20128 ft 429 kts 96°
2026-04-21 19:35 47.98755 17.34383 21489 ft 437 kts 98°
2026-04-21 19:35 47.98069 17.38834 22078 ft 443 kts 106°
2026-04-21 19:36 47.97097 17.43247 22708 ft 448 kts 109°
2026-04-21 19:36 47.96030 17.47640 23361 ft 453 kts 110°
2026-04-21 19:36 47.94953 17.52068 23943 ft 457 kts 109°
2026-04-21 19:36 47.93892 17.56565 24462 ft 461 kts 109°
2026-04-21 19:37 47.92854 17.61105 24963 ft 465 kts 108°
2026-04-21 19:37 47.91825 17.65705 25469 ft 469 kts 108°
2026-04-21 19:37 47.90797 17.70345 25936 ft 473 kts 108°
2026-04-21 19:37 47.89773 17.74969 26418 ft 477 kts 108°
2026-04-21 19:38 47.88726 17.79683 26887 ft 481 kts 108°
2026-04-21 19:38 47.87667 17.84432 27341 ft 485 kts 108°
2026-04-21 19:38 47.86945 17.87664 27640 ft 487 kts 108°
2026-04-21 19:38 47.85515 17.94035 28204 ft 492 kts 108°
2026-04-21 19:39 47.84377 17.98883 28609 ft 496 kts 111°
2026-04-21 19:39 47.82985 18.03594 29013 ft 499 kts 115°
2026-04-21 19:39 47.81494 18.08273 29376 ft 503 kts 115°
2026-04-21 19:39 47.79978 18.13003 29743 ft 506 kts 115°
2026-04-21 19:40 47.78474 18.17752 30084 ft 508 kts 115°
2026-04-21 19:40 47.76980 18.22524 30470 ft 509 kts 115°
2026-04-21 19:40 47.75519 18.27304 30877 ft 508 kts 112°
2026-04-21 19:40 47.74339 18.32244 31279 ft 507 kts 106°
2026-04-21 19:41 47.73457 18.37239 31652 ft 507 kts 102°
2026-04-21 19:41 47.72862 18.42412 32028 ft 506 kts 96°
2026-04-21 19:41 47.72476 18.47598 32405 ft 505 kts 95°
2026-04-21 19:41 47.72114 18.52790 32775 ft 505 kts 95°
2026-04-21 19:42 47.71746 18.57988 33065 ft 507 kts 95°
2026-04-21 19:42 47.70954 18.68471 33111 ft 509 kts 96°
2026-04-21 19:43 47.70129 18.78843 33107 ft 503 kts 96°
2026-04-21 19:43 47.69305 18.89095 33114 ft 502 kts 97°
2026-04-21 19:43 47.68560 18.94163 33105 ft 503 kts 108°
2026-04-21 19:44 47.67163 18.98903 33125 ft 503 kts 119°
2026-04-21 19:44 47.65244 19.03254 33123 ft 503 kts 130°
2026-04-21 19:44 47.62878 19.07070 33133 ft 502 kts 135°
2026-04-21 19:45 47.57954 19.14476 33127 ft 506 kts 135°
2026-04-21 19:45 47.53012 19.21939 33133 ft 508 kts 135°
2026-04-21 19:46 47.48125 19.29424 33133 ft 509 kts 135°
2026-04-21 19:46 47.43213 19.36978 33128 ft 510 kts 135°
2026-04-21 19:47 47.38287 19.44535 33125 ft 509 kts 135°
2026-04-21 19:47 47.33370 19.52050 33116 ft 508 kts 135°
2026-04-21 19:48 47.28454 19.59537 33108 ft 507 kts 135°
2026-04-21 19:48 47.23579 19.66941 33100 ft 507 kts 135°
2026-04-21 19:49 47.18664 19.74384 33098 ft 507 kts 135°
2026-04-21 19:49 47.13744 19.81815 33102 ft 507 kts 135°
2026-04-21 19:50 47.09646 19.87987 33102 ft 507 kts 135°
2026-04-21 19:50 47.03875 19.96654 33098 ft 508 kts 135°
2026-04-21 19:51 46.98953 20.04026 33101 ft 509 kts 135°
2026-04-21 19:51 46.93992 20.11434 33098 ft 510 kts 136°
2026-04-21 19:52 46.89017 20.18842 33092 ft 510 kts 136°
2026-04-21 19:52 46.84034 20.26241 33088 ft 511 kts 136°
2026-04-21 19:53 46.79039 20.33638 33082 ft 511 kts 136°
2026-04-21 19:53 46.74037 20.41023 33082 ft 511 kts 136°
2026-04-21 19:54 46.69061 20.48351 33078 ft 512 kts 136°
2026-04-21 19:54 46.64042 20.55720 33077 ft 512 kts 136°
2026-04-21 19:55 46.59014 20.63083 33074 ft 513 kts 136°
2026-04-21 19:55 46.53976 20.70439 33068 ft 514 kts 136°
2026-04-21 19:56 46.48923 20.77798 33074 ft 514 kts 137°
2026-04-21 19:56 46.43860 20.85150 33074 ft 515 kts 137°
2026-04-21 19:57 46.38782 20.92504 33075 ft 516 kts 137°
2026-04-21 19:57 46.33725 20.99808 33076 ft 516 kts 137°
2026-04-21 19:58 46.28634 21.07143 33072 ft 517 kts 137°
2026-04-21 19:58 46.23497 21.14376 33071 ft 517 kts 140°
2026-04-21 19:59 46.18128 21.21271 33076 ft 517 kts 141°
2026-04-21 19:59 46.13616 21.26948 33076 ft 517 kts 141°
2026-04-21 20:00 46.08211 21.33811 33076 ft 518 kts 141°
2026-04-21 20:00 46.02823 21.40708 33072 ft 519 kts 141°
2026-04-21 20:01 45.97432 21.47613 33065 ft 519 kts 141°
2026-04-21 20:01 45.92029 21.54511 33072 ft 519 kts 141°
2026-04-21 20:02 45.86607 21.61408 33077 ft 520 kts 141°
2026-04-21 20:02 45.81223 21.68236 33067 ft 520 kts 142°
2026-04-21 20:03 45.75804 21.75090 33066 ft 519 kts 142°
2026-04-21 20:03 45.70379 21.81935 33066 ft 520 kts 142°
2026-04-21 20:04 45.64945 21.88772 33067 ft 520 kts 142°
2026-04-21 20:04 45.59512 21.95589 33074 ft 520 kts 142°
2026-04-21 20:05 45.54063 22.02407 33060 ft 521 kts 142°
2026-04-21 20:05 45.48607 22.09216 33065 ft 521 kts 143°
2026-04-21 20:06 45.43164 22.15991 33062 ft 522 kts 143°
2026-04-21 20:06 45.37670 22.22810 33062 ft 523 kts 143°
2026-04-21 20:07 45.32180 22.29608 33077 ft 524 kts 143°
2026-04-21 20:07 45.26677 22.36403 33077 ft 525 kts 143°
2026-04-21 20:08 45.21139 22.43223 33067 ft 526 kts 143°
2026-04-21 20:08 45.15601 22.50026 33066 ft 527 kts 143°
2026-04-21 20:09 45.10085 22.56782 33054 ft 527 kts 144°
2026-04-21 20:09 45.04536 22.63560 33069 ft 527 kts 144°
2026-04-21 20:10 44.98973 22.70337 33079 ft 528 kts 144°
2026-04-21 20:10 44.93398 22.77113 33042 ft 527 kts 144°
2026-04-21 20:11 44.87828 22.83864 33054 ft 528 kts 144°
2026-04-21 20:11 44.82251 22.90605 33048 ft 528 kts 144°
2026-04-21 20:12 44.76701 22.97297 33045 ft 528 kts 144°
2026-04-21 20:12 44.71117 23.04011 33044 ft 528 kts 144°
2026-04-21 20:13 44.65525 23.10717 33047 ft 528 kts 144°
2026-04-21 20:13 44.59927 23.17412 33047 ft 529 kts 145°
2026-04-21 20:14 44.54308 23.24114 33038 ft 530 kts 145°
2026-04-21 20:14 44.48682 23.30807 33040 ft 530 kts 145°
2026-04-21 20:15 44.43081 23.37454 33029 ft 531 kts 145°
2026-04-21 20:15 44.37443 23.44128 33028 ft 532 kts 145°
2026-04-21 20:16 44.31777 23.50816 33034 ft 532 kts 146°
2026-04-21 20:16 44.26107 23.57493 33048 ft 532 kts 146°
2026-04-21 20:17 44.20440 23.64147 33040 ft 533 kts 146°
2026-04-21 20:17 44.14804 23.70749 33029 ft 533 kts 146°
2026-04-21 20:18 44.10071 23.76280 33026 ft 533 kts 146°
2026-04-21 20:18 44.03419 23.84033 33015 ft 533 kts 146°
2026-04-21 20:19 43.97723 23.90653 33000 ft 534 kts 146°
2026-04-21 20:19 43.92017 23.97269 33005 ft 534 kts 146°
2026-04-21 20:20 43.86305 24.03873 33011 ft 535 kts 146°
2026-04-21 20:20 43.80622 24.10428 32996 ft 535 kts 146°
2026-04-21 20:21 43.74898 24.17015 32994 ft 535 kts 146°
2026-04-21 20:21 43.69164 24.23608 32997 ft 536 kts 145°
2026-04-21 20:22 43.63708 24.30685 32988 ft 539 kts 141°
2026-04-21 20:22 43.55660 24.41514 32994 ft 538 kts 141°
2026-04-21 20:23 43.50308 24.48637 32987 ft 537 kts 141°
2026-04-21 20:23 43.44925 24.55754 32984 ft 535 kts 141°
2026-04-21 20:24 43.39558 24.62829 32990 ft 533 kts 141°
2026-04-21 20:24 43.34199 24.69881 32993 ft 532 kts 141°
2026-04-21 20:25 43.28853 24.76899 32994 ft 531 kts 141°
2026-04-21 20:25 43.23512 24.83893 33008 ft 530 kts 142°
2026-04-21 20:26 43.18210 24.90818 33006 ft 529 kts 142°
2026-04-21 20:26 43.12874 24.97772 33002 ft 529 kts 142°
2026-04-21 20:27 43.07534 25.04715 33029 ft 528 kts 142°
2026-04-21 20:27 43.02195 25.11649 33003 ft 528 kts 142°
2026-04-21 20:28 42.96857 25.18565 33023 ft 528 kts 142°
2026-04-21 20:28 42.91554 25.25419 33023 ft 528 kts 142°
2026-04-21 20:29 42.86214 25.32304 33013 ft 528 kts 141°
2026-04-21 20:29 42.80879 25.39166 33021 ft 527 kts 141°
2026-04-21 20:30 42.75542 25.46012 33019 ft 526 kts 141°
2026-04-21 20:30 42.70216 25.52828 33013 ft 524 kts 141°
2026-04-21 20:31 42.64907 25.59604 33017 ft 523 kts 141°
2026-04-21 20:31 42.59597 25.66364 33024 ft 523 kts 141°
2026-04-21 20:32 42.54333 25.73051 33033 ft 522 kts 141°
2026-04-21 20:32 42.49016 25.79788 33029 ft 522 kts 141°
2026-04-21 20:33 42.43711 25.86495 33030 ft 522 kts 141°
2026-04-21 20:33 42.38400 25.93193 33031 ft 522 kts 141°
2026-04-21 20:34 42.33085 25.99880 33036 ft 522 kts 141°
2026-04-21 20:34 42.27790 26.06528 33031 ft 522 kts 141°
2026-04-21 20:35 42.22465 26.13190 33031 ft 522 kts 142°
2026-04-21 20:35 42.17118 26.19839 33028 ft 522 kts 142°
2026-04-21 20:36 42.11765 26.26483 33021 ft 523 kts 142°
2026-04-21 20:36 42.06400 26.33131 33037 ft 523 kts 142°
2026-04-21 20:37 42.01034 26.39765 33031 ft 523 kts 142°
2026-04-21 20:37 41.95707 26.46336 33028 ft 523 kts 142°
2026-04-21 20:38 41.90337 26.52946 33027 ft 522 kts 142°
2026-04-21 20:38 41.85184 26.59839 33021 ft 526 kts 134°
2026-04-21 20:39 41.80530 26.67442 33023 ft 527 kts 133°
2026-04-21 20:39 41.75912 26.75015 33020 ft 527 kts 133°
2026-04-21 20:40 41.71232 26.82572 33023 ft 527 kts 133°
2026-04-21 20:40 41.66531 26.90107 33022 ft 527 kts 134°
2026-04-21 20:41 41.61835 26.97622 33020 ft 527 kts 134°
2026-04-21 20:41 41.57131 27.05138 33017 ft 527 kts 134°
2026-04-21 20:42 41.54768 27.08879 32769 ft 528 kts 135°
2026-04-21 20:42 41.52277 27.12494 32107 ft 526 kts 138°
2026-04-21 20:42 41.49716 27.15970 31379 ft 523 kts 139°
2026-04-21 20:42 41.47135 27.19387 30579 ft 522 kts 139°
2026-04-21 20:43 41.44557 27.22802 29717 ft 522 kts 139°
2026-04-21 20:43 41.42004 27.26222 29021 ft 517 kts 139°
2026-04-21 20:43 41.39497 27.29618 28452 ft 510 kts 138°
2026-04-21 20:43 41.37063 27.32935 27896 ft 503 kts 138°
2026-04-21 20:44 41.34622 27.36264 27324 ft 498 kts 138°
2026-04-21 20:44 41.32215 27.39540 26725 ft 493 kts 138°
2026-04-21 20:44 41.29823 27.42787 26175 ft 488 kts 138°
2026-04-21 20:44 41.28262 27.44905 26019 ft 480 kts 138°
2026-04-21 20:45 41.25963 27.48022 25929 ft 465 kts 138°
2026-04-21 20:45 41.23797 27.51128 25762 ft 453 kts 131°
2026-04-21 20:45 41.22258 27.54742 25496 ft 447 kts 113°
2026-04-21 20:45 41.21205 27.58608 25096 ft 443 kts 111°
2026-04-21 20:46 41.20171 27.62458 24659 ft 441 kts 112°
2026-04-21 20:46 41.19116 27.66287 24232 ft 438 kts 112°
2026-04-21 20:46 41.18064 27.70006 23837 ft 435 kts 113°
2026-04-21 20:46 41.16987 27.73742 23423 ft 431 kts 113°
2026-04-21 20:47 41.16258 27.76251 23121 ft 429 kts 113°
2026-04-21 20:47 41.13634 27.85246 22072 ft 420 kts 113°
2026-04-21 20:47 41.12582 27.88847 21661 ft 417 kts 113°
2026-04-21 20:48 41.11534 27.92430 21232 ft 414 kts 113°
2026-04-21 20:48 41.10495 27.95976 20811 ft 411 kts 113°
2026-04-21 20:48 41.09461 27.99500 20370 ft 408 kts 113°
2026-04-21 20:48 41.08446 28.02956 19982 ft 405 kts 113°
2026-04-21 20:49 41.07428 28.06421 19576 ft 402 kts 113°
2026-04-21 20:49 41.06418 28.09854 19323 ft 395 kts 113°
2026-04-21 20:49 41.05431 28.13183 19239 ft 380 kts 116°
2026-04-21 20:49 41.04070 28.16074 19023 ft 362 kts 139°
2026-04-21 20:50 41.02127 28.18055 18816 ft 346 kts 156°
2026-04-21 20:50 40.99965 28.19262 18539 ft 333 kts 171°
2026-04-21 20:50 40.97720 28.19917 18152 ft 329 kts 174°
2026-04-21 20:50 40.95473 28.20463 17708 ft 328 kts 175°
2026-04-21 20:51 40.93227 28.20999 17313 ft 326 kts 175°
2026-04-21 20:51 40.91000 28.21544 16960 ft 324 kts 174°
2026-04-21 20:51 40.88787 28.22101 16589 ft 322 kts 174°
2026-04-21 20:51 40.86592 28.22663 16210 ft 320 kts 174°
2026-04-21 20:52 40.84411 28.23228 15842 ft 319 kts 174°
2026-04-21 20:52 40.82259 28.23787 15496 ft 317 kts 174°
2026-04-21 20:52 40.80100 28.24349 15136 ft 316 kts 174°
2026-04-21 20:52 40.77954 28.24971 14766 ft 315 kts 166°
2026-04-21 20:53 40.75929 28.26158 14327 ft 321 kts 156°
2026-04-21 20:53 40.73973 28.27573 13996 ft 320 kts 155°
2026-04-21 20:53 40.72022 28.28971 13680 ft 317 kts 156°
2026-04-21 20:53 40.70184 28.30541 13213 ft 319 kts 139°
2026-04-21 20:54 40.68931 28.32980 12749 ft 327 kts 111°
2026-04-21 20:54 40.68538 28.35872 12419 ft 325 kts 88°
2026-04-21 20:54 40.68889 28.38785 12047 ft 321 kts 76°
2026-04-21 20:54 40.69391 28.41652 11655 ft 322 kts 76°
2026-04-21 20:55 40.69882 28.44526 11313 ft 320 kts 77°
2026-04-21 20:55 40.70355 28.47401 11011 ft 318 kts 77°
2026-04-21 20:55 40.70803 28.50243 10696 ft 313 kts 82°
2026-04-21 20:55 40.70727 28.53064 10391 ft 306 kts 108°
2026-04-21 20:56 40.69973 28.55604 10093 ft 299 kts 116°
2026-04-21 20:56 40.69142 28.58103 9803 ft 297 kts 116°
2026-04-21 20:56 40.68323 28.60607 9476 ft 296 kts 115°
2026-04-21 20:56 40.67482 28.63054 9173 ft 287 kts 125°
2026-04-21 20:57 40.66168 28.64890 9045 ft 267 kts 151°
2026-04-21 20:57 40.64580 28.66056 9008 ft 260 kts 158°
2026-04-21 20:57 40.62941 28.67167 9021 ft 269 kts 158°
2026-04-21 20:57 40.61254 28.68319 9010 ft 274 kts 157°
2026-04-21 20:58 40.59570 28.69486 8999 ft 273 kts 154°
2026-04-21 20:58 40.58074 28.71027 9002 ft 274 kts 139°
2026-04-21 20:58 40.56754 28.72806 8993 ft 274 kts 138°
2026-04-21 20:58 40.55428 28.74608 8989 ft 274 kts 138°
2026-04-21 20:59 40.54086 28.76393 8992 ft 274 kts 139°
2026-04-21 20:59 40.52786 28.78235 8975 ft 275 kts 128°
2026-04-21 20:59 40.51813 28.80425 9015 ft 280 kts 120°
2026-04-21 20:59 40.50918 28.82733 8992 ft 285 kts 120°
2026-04-21 21:00 40.50016 28.85019 8990 ft 284 kts 120°
2026-04-21 21:00 40.49095 28.87306 8980 ft 282 kts 120°
2026-04-21 21:00 40.48425 28.89706 8995 ft 280 kts 104°
2026-04-21 21:00 40.48060 28.92224 8980 ft 282 kts 101°
2026-04-21 21:01 40.47716 28.94771 9001 ft 283 kts 102°
2026-04-21 21:01 40.47350 28.97319 8999 ft 284 kts 102°
2026-04-21 21:01 40.47033 28.99876 8971 ft 283 kts 92°
2026-04-21 21:01 40.47129 29.02462 9004 ft 284 kts 83°
2026-04-21 21:02 40.47374 29.05041 8981 ft 284 kts 77°
2026-04-21 21:02 40.48155 29.07333 8994 ft 278 kts 47°
2026-04-21 21:02 40.49622 29.08912 8981 ft 272 kts 21°
2026-04-21 21:02 40.51441 29.09618 8588 ft 275 kts 359°
2026-04-21 21:03 40.53302 29.09382 8239 ft 265 kts 340°
2026-04-21 21:03 40.55077 29.08770 7911 ft 263 kts 340°
2026-04-21 21:03 40.56842 29.08170 7594 ft 262 kts 340°
2026-04-21 21:03 40.58613 29.07568 7291 ft 262 kts 340°
2026-04-21 21:04 40.60385 29.06974 7017 ft 263 kts 341°
2026-04-21 21:04 40.62157 29.06388 6652 ft 263 kts 341°
2026-04-21 21:04 40.63863 29.05829 6657 ft 250 kts 341°
2026-04-21 21:04 40.65547 29.05277 6649 ft 247 kts 340°
2026-04-21 21:05 40.67111 29.04479 6629 ft 236 kts 320°
2026-04-21 21:05 40.68430 29.03175 6657 ft 241 kts 318°
2026-04-21 21:05 40.69786 29.01821 6667 ft 246 kts 318°
2026-04-21 21:05 40.71034 29.00346 6654 ft 236 kts 303°
2026-04-21 21:06 40.71930 28.98552 6666 ft 234 kts 297°
2026-04-21 21:06 40.72740 28.96692 6665 ft 234 kts 296°
2026-04-21 21:06 40.73540 28.94830 6662 ft 233 kts 296°
2026-04-21 21:06 40.74344 28.92967 6665 ft 233 kts 297°
2026-04-21 21:07 40.75153 28.91110 6667 ft 233 kts 297°
2026-04-21 21:07 40.75950 28.89246 6662 ft 233 kts 294°
2026-04-21 21:07 40.76756 28.87415 6520 ft 232 kts 311°
2026-04-21 21:07 40.78139 28.86341 6064 ft 234 kts 341°
2026-04-21 21:08 40.79723 28.86166 5659 ft 231 kts
2026-04-21 21:08 40.81271 28.86687 5138 ft 231 kts 24°
2026-04-21 21:08 40.82510 28.87949 4972 ft 225 kts 48°
2026-04-21 21:08 40.83366 28.89744 4847 ft 237 kts 65°
2026-04-21 21:09 40.83688 28.91904 4625 ft 241 kts 93°
2026-04-21 21:09 40.83546 28.94089 4462 ft 239 kts 95°
2026-04-21 21:09 40.83397 28.96299 4319 ft 244 kts 95°
2026-04-21 21:09 40.83254 28.98499 4139 ft 242 kts 95°
2026-04-21 21:10 40.83116 29.00691 3956 ft 234 kts 94°
2026-04-21 21:10 40.82989 29.02784 3842 ft 223 kts 94°
2026-04-21 21:10 40.82871 29.04785 3663 ft 214 kts 95°
2026-04-21 21:10 40.82758 29.06715 3514 ft 206 kts 94°
2026-04-21 21:11 40.82687 29.07945 3437 ft 197 kts 94°
2026-04-21 21:11 40.82554 29.10231 3233 ft 180 kts 94°
2026-04-21 21:11 40.82459 29.11853 3123 ft 176 kts 94°
2026-04-21 21:11 40.82507 29.13462 3019 ft 177 kts 71°
2026-04-21 21:12 40.82953 29.14993 2859 ft 185 kts 68°
2026-04-21 21:12 40.83279 29.16034 2690 ft 182 kts 66°
2026-04-21 21:12 40.83802 29.17525 2436 ft 175 kts 65°
2026-04-21 21:12 40.84312 29.18918 2225 ft 161 kts 64°
2026-04-21 21:13 40.84780 29.20192 1971 ft 146 kts 64°
2026-04-21 21:13 40.85237 29.21431 1835 ft 158 kts 63°
2026-04-21 21:13 40.85714 29.22722 1578 ft 152 kts 65°
2026-04-21 21:13 40.86158 29.23933 1386 ft 142 kts 64°
2026-04-21 21:14 40.86591 29.25106 1178 ft 143 kts 64°
2026-04-21 21:14 40.87019 29.26276 1119 ft 139 kts 63°
2026-04-21 21:14 40.87457 29.27427 1492 ft 141 kts 62°
2026-04-21 21:14 40.87954 29.28591 2381 ft 146 kts 60°
2026-04-21 21:15 40.88478 29.29667 3666 ft 137 kts 53°
2026-04-21 21:15 40.89119 29.30777 4281 ft 174 kts 47°
2026-04-21 21:15 40.90026 29.32107 4972 ft 213 kts 44°
2026-04-21 21:15 40.90913 29.33976 4545 ft 270 kts 72°
2026-04-21 21:16 40.90922 29.36599 3297 ft 306 kts 108°
2026-04-21 21:16 40.89710 29.38926 2812 ft 300 kts 147°
2026-04-21 21:16 40.87892 29.39876 3367 ft 274 kts 173°
2026-04-21 21:16 40.86047 29.39541 3098 ft 268 kts 208°
2026-04-21 21:17 40.84716 29.37969 2956 ft 253 kts 231°
2026-04-21 21:17 40.83533 29.36347 3003 ft 242 kts 222°
2026-04-21 21:17 40.82278 29.34863 3500 ft 241 kts 223°
2026-04-21 21:17 40.81037 29.33364 3987 ft 242 kts 225°
2026-04-21 21:18 40.79813 29.31837 4002 ft 241 kts 224°
2026-04-21 21:18 40.78407 29.30717 4008 ft 236 kts 198°
2026-04-21 21:18 40.76791 29.30207 4040 ft 243 kts 196°
2026-04-21 21:18 40.75108 29.29670 4040 ft 260 kts 196°
2026-04-21 21:19 40.73337 29.29100 4028 ft 263 kts 196°
2026-04-21 21:19 40.71556 29.28527 4187 ft 264 kts 196°
2026-04-21 21:19 40.69760 29.27948 4734 ft 271 kts 197°
2026-04-21 21:19 40.67928 29.27357 4935 ft 270 kts 197°
2026-04-21 21:20 40.66116 29.26772 5052 ft 267 kts 197°
2026-04-21 21:20 40.64317 29.26191 5116 ft 265 kts 197°
2026-04-21 21:20 40.62524 29.25609 5168 ft 265 kts 197°
2026-04-21 21:20 40.60729 29.25028 5188 ft 266 kts 197°
2026-04-21 21:21 40.58922 29.24441 5199 ft 268 kts 197°
2026-04-21 21:21 40.57107 29.23855 5191 ft 267 kts 197°
2026-04-21 21:21 40.55337 29.23285 5185 ft 261 kts 197°
2026-04-21 21:21 40.53613 29.22690 5089 ft 251 kts 205°
2026-04-21 21:22 40.52271 29.21322 4996 ft 252 kts 241°
2026-04-21 21:22 40.51714 29.18982 5078 ft 292 kts 266°
2026-04-21 21:22 40.51908 29.16247 5056 ft 302 kts 285°
2026-04-21 21:22 40.52826 29.13819 4947 ft 293 kts 308°
2026-04-21 21:23 40.54218 29.11953 4855 ft 282 kts 315°
2026-04-21 21:23 40.55680 29.10183 4837 ft 285 kts 315°
2026-04-21 21:23 40.57105 29.08493 4653 ft 266 kts 323°
2026-04-21 21:23 40.58725 29.07487 4493 ft 252 kts 341°
2026-04-21 21:24 40.60397 29.06933 4435 ft 248 kts 343°
2026-04-21 21:24 40.62054 29.06400 4336 ft 241 kts 343°
2026-04-21 21:24 40.63660 29.05881 4274 ft 234 kts 343°
2026-04-21 21:24 40.65210 29.05377 4247 ft 223 kts 343°
2026-04-21 21:25 40.66682 29.04896 4224 ft 213 kts 343°
2026-04-21 21:25 40.68094 29.04434 4193 ft 204 kts 342°
2026-04-21 21:25 40.69449 29.03989 4100 ft 197 kts 342°
2026-04-21 21:25 40.70741 29.03563 4024 ft 190 kts 342°
2026-04-21 21:26 40.72022 29.03141 3906 ft 187 kts 343°
2026-04-21 21:26 40.73247 29.02739 3956 ft 177 kts 342°
2026-04-21 21:26 40.74409 29.02358 3916 ft 168 kts 342°
2026-04-21 21:26 40.75561 29.01975 3890 ft 174 kts 342°
2026-04-21 21:27 40.76772 29.01744 3924 ft 181 kts
2026-04-21 21:27 40.77863 29.02618 3911 ft 197 kts 51°
2026-04-21 21:27 40.78682 29.04142 3752 ft 212 kts 51°
2026-04-21 21:27 40.79585 29.05724 3549 ft 218 kts 51°
2026-04-21 21:28 40.80495 29.07289 3345 ft 210 kts 51°
2026-04-21 21:28 40.81354 29.08754 3143 ft 195 kts 51°
2026-04-21 21:28 40.82765 29.11632 3026 ft 183 kts 64°
2026-04-21 21:29 40.83309 29.13114 3008 ft 174 kts 64°
2026-04-21 21:29 40.83825 29.14520 3001 ft 168 kts 64°
2026-04-21 21:29 40.84333 29.15914 2943 ft 171 kts 64°
2026-04-21 21:29 40.84855 29.17341 2591 ft 168 kts 64°
2026-04-21 21:30 40.85349 29.18686 2313 ft 157 kts 64°
2026-04-21 21:30 40.85806 29.19929 2134 ft 147 kts 64°
2026-04-21 21:30 40.86275 29.21201 2117 ft 161 kts 64°
2026-04-21 21:30 40.86763 29.22529 2085 ft 158 kts 64°
2026-04-21 21:31 40.87237 29.23814 1953 ft 154 kts 64°
2026-04-21 21:31 40.87729 29.25144 1310 ft 162 kts 65°
2026-04-21 21:31 40.88158 29.26434 911 ft 143 kts 64°
2026-04-21 21:31 40.88571 29.27490 646 ft 119 kts 60°
2026-04-21 21:32 40.88935 29.28447 408 ft 116 kts 62°
2026-04-21 21:32 40.89306 29.29444 365 ft 123 kts 62°
2026-04-21 21:32 40.89673 29.30422 313 ft 115 kts 63°
2026-04-21 21:32 40.90003 29.31319 314 ft 90 kts 64°
2026-04-21 21:33 40.90114 29.31566 315 ft 21 kts 45°
2026-04-21 21:33 40.90228 29.31688 317 ft 21 kts 36°
2026-04-21 21:33 40.90275 29.31729 317 ft 7 kts 29°
2026-04-21 21:33 40.90319 29.31736 318 ft 7 kts 348°
2026-04-21 21:34 40.90341 29.31684 317 ft 7 kts 272°
2026-04-21 21:34 40.90322 29.31623 317 ft 8 kts 245°
2026-04-21 21:34 40.90300 29.31558 317 ft 8 kts 245°
2026-04-21 21:34 40.90302 29.31492 317 ft 8 kts 320°
2026-04-21 21:35 40.90365 29.31466 317 ft 11 kts 341°
2026-04-21 21:35 40.90443 29.31420 317 ft 13 kts 315°
2026-04-21 21:35 40.90500 29.31363 317 ft 7 kts 332°
2026-04-21 21:35 40.90507 29.31358 317 ft 1 kts 335°
2026-04-21 21:36 40.90514 29.31353 318 ft 2 kts 334°
2026-04-21 21:36 40.90518 29.31351 318 ft 0 kts 334°